This is the latest recevied weather packets stored in our database for station/object N0NB. If no packets are shown the sender has not sent any weather packets the latest 1 day(s).
| Time | Temp. | Humidity | Pressure | Rain* | Wind** | Luminosity | Snow |
|---|---|---|---|---|---|---|---|
| 1778010016 | 12.22° C | 49% | 1011.7 hPa | 0 mm | 2.24 m/s, 338° | 212 W/m² | - |
| 1778009416 | 12.22° C | 50% | 1011.8 hPa | 0 mm | 1.34 m/s, 315° | 284 W/m² | - |
| 1778008816 | 12.22° C | 56% | 1011.8 hPa | 0 mm | 1.34 m/s, 338° | 272 W/m² | - |
| 1778008216 | 11.67° C | 56% | 1011.7 hPa | 0 mm | 1.34 m/s, 0° | 203 W/m² | - |
| 1778007616 | 11.67° C | 54% | 1011.5 hPa | 0 mm | 1.79 m/s, 0° | 211 W/m² | - |
| 1778007016 | 11.67° C | 54% | 1011.7 hPa | 0 mm | 1.79 m/s, 45° | 207 W/m² | - |
| 1778006416 | 12.22° C | 58% | 1011.8 hPa | 0 mm | 2.24 m/s, 0° | 226 W/m² | - |
| 1778005816 | 12.22° C | 64% | 1011.6 hPa | 0 mm | 0.89 m/s, 338° | 204 W/m² | - |
| 1778005216 | 11.67° C | 67% | 1011.7 hPa | 0 mm | 1.79 m/s, 293° | 224 W/m² | - |
| 1778004616 | 11.67° C | 66% | 1011.8 hPa | 0 mm | 1.34 m/s, 68° | 228 W/m² | - |
| 1778004020 | 11.67° C | 68% | 1011.8 hPa | 0 mm | 0.89 m/s, 0° | 304 W/m² | - |
| 1778003416 | 11.67° C | 68% | 1011.9 hPa | 0 mm | 0.89 m/s, 338° | 254 W/m² | - |
| 1778002816 | 11.11° C | 70% | 1011.9 hPa | 0 mm | 0.89 m/s, 23° | 219 W/m² | - |
| 1778002216 | 11.11° C | 69% | 1012 hPa | 0 mm | 1.34 m/s, 315° | 246 W/m² | - |
| 1778001616 | 11.11° C | 70% | 1012.1 hPa | 0 mm | 0.89 m/s, 315° | 234 W/m² | - |
| 1778001015 | 11.11° C | 71% | 1012.1 hPa | 0 mm | 0.89 m/s, 338° | 178 W/m² | - |
| 1778000416 | 10.56° C | 69% | 1012.1 hPa | 0 mm | 0.89 m/s, 338° | 184 W/m² | - |
| 1777999815 | 10.56° C | 71% | 1012 hPa | 0 mm | 0.45 m/s, 338° | 149 W/m² | - |
| 1777999216 | 10.56° C | 74% | 1011.9 hPa | 0 mm | 0.45 m/s, 338° | 124 W/m² | - |
| 1777998615 | 10.56° C | 74% | 1012.1 hPa | 0 mm | 0.89 m/s, 338° | 192 W/m² | - |
| 1777998016 | 10.56° C | 75% | 1011.8 hPa | 0 mm | 0.89 m/s, 315° | 189 W/m² | - |
| 1777997415 | 10° C | 76% | 1011.7 hPa | 0 mm | 0.89 m/s, 315° | 161 W/m² | - |
| 1777996816 | 10° C | 78% | 1011.7 hPa | 0 mm | 0.89 m/s, 338° | 135 W/m² | - |
| 1777996215 | 10° C | 77% | 1011.6 hPa | 0 mm | 0.45 m/s, 338° | 138 W/m² | - |
| 1777995616 | 9.44° C | 79% | 1011.5 hPa | 0 mm | 0.45 m/s, 338° | 144 W/m² | - |
* Rain latest hour (hover to see other rain measurements)
** Current wind speed in m/s (hover to see current wind gust speed)